Muminabad

Tajikistan     38˚06′32″N   70˚01′38″E
temp.,
°C
wind,
m/s
gust,
m/s
humid.,
%
clouds,
%
prec.,
mm/h
press.,
hPa
HPBL,
m
29 november, sun
sun2923:00e336566 0.0 103925
02:00e3358100 0.0 103727
05:00e3353100 0.0 103633
08:00e435178 0.0 103539
11:00+4˚e235779 0.0 1032128
14:00+6˚e116296 0.0 1029136
17:00+3˚e225398 0.0 103023
20:00+2˚e3348100 0.0 103027
30 november, mon
mon3023:00+1˚e334496 0.0 103131
02:00+1˚e43405 0.0 103035
05:00+1˚e443818 0.0 102941
08:00+1˚e4338100 0.0 102845
11:00+6˚e3344100 0.0 102692
14:00+8˚e2250100 0.0 102387
17:00+5˚ese2250100 0.0 102323
20:00+5˚ese3359100 0.1 102431
1 december, tue
tue123:00+4˚e4483100 0.4 102485
02:00+5˚e4480100 0.1 102462
05:00+5˚e4481100 0.3 102359
08:00+5˚ene1185100 0.3 102424
11:00+6˚ene2288100 1.9 102450
14:00+9˚ese337591 1.6 1023274
17:00+5˚e338364 1.6 102536
20:00+5˚e33691 0.0 102728
2 december, wed
wed223:00+5˚e43590 0.0 102934
02:00+4˚e445835 0.0 102940
05:00+4˚e545641 0.0 102946
08:00+4˚e545383 0.0 103052
11:00+10˚e334748 0.0 1027156
14:00+11˚e334934 0.0 1024221
17:00+7˚e435768 0.0 102439
20:00+6˚e445582 0.0 102642
3 december, thu
thu323:00+5˚e445257 0.0 102746
02:00+4˚e445222 0.0 102743
05:00+4˚e445129 0.0 102747
08:00+4˚e445096 0.0 102753
11:00+9˚e334398 0.0 1024168
14:00+10˚e2343100 0.0 1020238
17:00+7˚e3352100 0.0 101938
20:00+7˚ese1252100 0.0 102027